Regional Weather Roundup
Issued by NWS

Home | Current Version | Previous Version | Text Only | Print | Product List | Glossary Off
Versions: 1 2 3 4 5 6 7 8 9 10 11 12 13 14 15 16 17 18 19 20 21 22 23 24 25 26 27

000
ASUS45 KBOU 272007
RWRCO

WEATHER ROUNDUP FOR COLORADO
NATIONAL WEATHER SERVICE DENVER/BOULDER CO
200 PM MDT TUE JUN 27 2017

NOTE: "FAIR" INDICATES FEW OR NO CLOUDS BELOW 12000 FEET WITH NO
SIGNIFICANT WEATHER AND/OR OBSTRUCTIONS TO VISIBILITY.

COZ001>005-013-030-031-272100-
...NORTHWEST COLORADO...

CITY           SKY/WX    TMP DP  RH WIND       PRES   REMARKS
CRAIG          FAIR      89  20   8 W20G32    29.97F
HAYDEN         FAIR      84  25  11 W16G26    30.00F
MEEKER         FAIR      85  12   6 W13G30    29.99F
RABBIT EARS PA FAIR      64  27  24 W12G29    30.32S
STEAMBOAT SPGS FAIR      79  31  17 W13       30.02F
WALDEN         FAIR      79  27  14 SW18G29   30.13F
$$

COZ006>008-011-272100-
...WEST CENTRAL VALLEYS...

CITY           SKY/WX    TMP DP  RH WIND       PRES   REMARKS
GRAND JUNCTION FAIR      96  18   6 W21G30    29.89F
MONTROSE       FAIR      90  27  10 W21G31    30.01F
EAGLE          MOSUNNY   86  25  10 W24G35    30.02F
RIFLE          FAIR      92  12   5 W18G39    29.95F
DELTA          FAIR      96  20   6 SW21G30   29.96F
NUCLA          FAIR      90  19   7 S22G35    30.08F
$$

COZ017>023-064>068-272100-
...SOUTHWEST COLORADO...

CITY           SKY/WX    TMP DP  RH WIND       PRES   REMARKS
DURANGO        FAIR      87  27  11 SW15G24   30.14F
CORTEZ         FAIR      90  25   9 SW10G24   30.07F
PAGOSA SPRINGS FAIR      81  22  11 SW15G25   30.22F
TELLURIDE      FAIR      73  24  16 SW20G26   30.32F
WOLF CREEK PAS FAIR      59  32  36 S24G37    30.55F
$$

COZ009-010-012-014-032>034-037-058>063-272100-
...CENTRAL COLORADO...

CITY           SKY/WX    TMP DP  RH WIND       PRES   REMARKS
ASPEN          FAIR      80  23  12 S14G23    30.14F
BUENA VISTA    FAIR      81  21  11 S6G21     30.12F
COPPER MTN     FAIR      64  18  16 W13G35    30.47F
BERTHOUD PASS  FAIR      55  41  58 W26G44    30.48F
COTTONWOOD PAS FAIR      73  10   9 W7G28     30.29F
GUNNISON       FAIR      80  29  15 W21G32    30.14F
KREMMLING      FAIR      90   9   5 W26G37    30.07F
LEADVILLE      FAIR      70  16  12 SW20G29   30.28F
MONARCH PASS   FAIR      61  32  33 SW25G35   30.57F
SALIDA         FAIR      82  31  16 SW18G25   30.19F
SUNLIGHT       FAIR      70  27  19 SW15G30   30.38F
WILKERSON PASS FAIR      70  18  13 SW13G26   30.40F
$$

COZ069>075-272100-
...SAN LUIS VALLEY/SANGRE DE CRISTO MOUNTAINS...

CITY           SKY/WX    TMP DP  RH WIND       PRES   REMARKS
ALAMOSA        FAIR      85  30  13 W22G29    30.14F
DEL NORTE      FAIR      82  29  15 W30G37    30.17F
LA VETA PASS   FAIR      72  37  28 MISG      30.46F
SAGUACHE       FAIR      77  37  24 SE5G10    30.19F
$$

COZ035-036-038>040-272100-
...NORTHERN COLORADO FRONT RANGE...

CITY           SKY/WX    TMP DP  RH WIND       PRES   REMARKS
DENVER INTL AP PTSUNNY   93  31  11 SW5       29.84F
DMNS CITY PARK   N/A     96  29   9 E1        29.83F
AURORA         PTSUNNY   94  32  11 N8        29.86F
FRONT RANGE AP FAIR      91  32  12 NW5       29.86F
ERIE MUNI ARPT FAIR      95  33  11 SE7       29.81F
BOULDER MUN AP FAIR      91  32  12 W22G35    29.82F
CENTENNIAL     PTSUNNY   88  27  11 W7G24     29.89F
BROOMFIELD     FAIR      91  32  12 NE5       29.85F
FORT COLLINS   FAIR      97  35  11 W28G35    29.78F
LONGMONT       FAIR      99  30   9 SW16G25   29.81F
$$

COZ041-046-047-076>085-087-088-272100-
...PIKES PEAK/PALMER DIVIDE AND SOUTHERN FOOTHILLS...

CITY           SKY/WX    TMP DP  RH WIND       PRES   REMARKS
COLO. SPRINGS  FAIR      93  29  10 W23G31    29.95F
A. F. ACADEMY  FAIR      90  28  11 W15G25    29.95F
SCHRIEVER AFB  FAIR      84  39  20 SW8       29.96F
CHEYENNE MTN   LGT RAIN  81  34  18 NW8G21    29.97F
ELLICOTT       FAIR     N/A N/A N/A SW17G30   29.95F
FALCON           N/A     88  28  11 S10G20    30.02F
FORT CARSON    FAIR      94  27   9 SW22G29   29.92F
LIMON          FAIR      89  48  24 E14       29.89F
MONUMENT HILL  FAIR      86  28  12 W17G31    30.02F
CANON CITY     SUNNY     99  36  11 W16G25    29.89F
WALSENBURG     FAIR      93  39  15 SW18G28   29.99F
TRINIDAD       FAIR      80  54  40 E7        30.00S
$$

COZ042>045-048>051-090-091-272100-
...NORTHEAST COLORADO...

CITY           SKY/WX    TMP DP  RH WIND       PRES   REMARKS
GREELEY ARPT   FAIR      96  45  17 S9        29.78F
AKRON          FAIR      97  37  12 SW16G22   29.81F
BURLINGTON     NOT AVBL
WRAY           FAIR      95  55  26 SE17G24   29.77F
YUMA           FAIR      90  54  29 S16G22    29.77F
STERLING       FAIR      93  45  18 SW7       29.75F
HOLYOKE        NOT AVBL
FORT MORGAN    FAIR      94  42  16 SE5       29.80F
$$

COZ086-089-092>099-272100-
...SOUTHEAST COLORADO...

CITY           SKY/WX    TMP DP  RH WIND       PRES   REMARKS
PUEBLO         FAIR      96  42  15 S9        29.84F
LA JUNTA       FAIR      98  47  17 S14G22    29.83F
LAMAR          NOT AVBL
SPRINGFIELD      N/A     90  50  25 S25G38    29.91F
$$




USA.gov is the U.S. government's official web portal to all federal, state and local government web resources and services.